THORAD DELTA 1 DEB, 8407

Orbit data source: Space-Track

THORAD DELTA 1 DEB, 8407 is space debris in SSO originally from a launch on Fri, 15 Nov 1974 UTC launched from the Air Force Western Test Range (AFWTR). Debris objects in space refer to the collection of defunct objects orbiting the Earth. Examples of debris include non-operational satellites, rocket bodies, and fragments generated from explosions, collisions, or faulty payload assembly.

Loading next visibility...
Identifier
8407, 1974-089CK
Orbit
SSO
Country
Flag of USUS
Related business
Manufacturer
Unknown
Mission
Spacecraft
Bus & Motor
Unknown
Mass
Unknown
Launch date (UTC)
1974-11-15 (52 years ago)
Launch vehicle
Unknown
Launch site
Air Force Western Test Range (AFWTR)
Object type
Payload
Rocket body
Debris
Shape & HBR
Unknown shape, 0.1 m
Radar Cross Section
Small (<0.1 m²)

Expand to show TLE details & history
Last TLE update: 1 day ago

TLE from 1 day ago
0 THORAD DELTA 1 DEB
1 08407U 74089CK  26143.87937936  .00000183  00000-0  10838-2 0  9999
2 08407 101.5923 127.3546 0228689 197.8160 237.9814 12.67095601382304
Epoch: 2026-05-23T21:06Z
TLE epoch observation values (Epoch: 2026-05-23T21:06:18.376Z)
Latitude
70.09071°
Longitude
-105.0179°
Altitude
1,502.876 km
Speed
7.075 km/s
True Right ascension
06h 12m 11s
True Declination
69° 59' 27"
Sunlit
Object was in daylight at epoch
Visualization orbit readout
Latitude
Unknown
Longitude
Unknown
Altitude
Unknown
Speed
Unknown
Apparent Right ascension
Unknown
Apparent Declination
Unknown
Sunlit
N/A
Visualization observer readout
Local Sidereal Time
14:11:12
Azimuth
Unknown
Elevation
Unknown
Doppler factor
Unknown
Orbital elements
Apogee altitude
1,568.986 km
Perigee altitude
1,213.628 km
Semi-major axis
7,769.444 km
Eccentricity
0.02287
Inclination
101.5923°
RAAN
127.3546°
Arg. of periapsis
197.816°
True anomaly
235.79319°
Mean anomaly
237.9814°
Eccentric anomaly
236.88394°
Mean motion
3.16926 °/min
Orbital period
113.59 mins
BSTAR
0.0010838
Loading maneuver chart data...
Computing Atmospheric mass density...

Documentation

Showing up to 5 results
|